Albany, OH

5:37 AM EST on February 07, 2016 (GMT -0500)
Ohio University

Weather History for KUNI - July, 2013

Change the Weather History Date:

Monday, July 15, 2013

  Actual Average (KPKB) Record (KPKB)
Temperature  
Mean Temperature 78 °F 75 °F  
Max Temperature 89 °F 85 °F 101 °F (1988)
Min Temperature 66 °F 64 °F 49 °F (1987)
Degree Days  
Heating Degree Days 0 0  
Month to date heating degree days 0  
Since 1 June heating degree days 19  
Since 1 July heating degree days 0  
Cooling Degree Days 12 10  
Month to date cooling degree days 142  
Year to date cooling degree days 417  
Since 1 June cooling degree days 333  
Growing Degree Days 28 (Base 50)    
Moisture  
Dew Point 68 °F    
Average Humidity 72    
Maximum Humidity 95    
Minimum Humidity 46    
Precipitation  
Precipitation 0.00 in 0.14 in 0.58 in (2005)
Month to date precipitation 1.99  
Year to date precipitation 22.96  
Sea Level Pressure  
Sea Level Pressure 30.30 in    
Wind  
Wind Speed 1 mph (SSE)    
Max Wind Speed 6 mph    
Max Gust Speed -    
Visibility 10 miles    
Events      
T = Trace of Precipitation, MM = Missing Value Source: NWS Daily Summary

Daily Weather History Graph

Daily Weather History Graph

Search for Another Location

Airport or City:

Trip Planner

Search our weather history database for the weather conditions in past years. The results will help you decide how hot, cold, wet, or windy it might be!

Date:

Astronomy

Jul. 15, 2013 Rise Set
Actual Time 6:15 AM EDT 8:54 PM EDT
Civil Twilight 5:43 AM EDT 9:25 PM EDT
Nautical Twilight 5:04 AM EDT 10:04 PM EDT
Astronomical Twilight 4:20 AM EDT 10:48 PM EDT
Moon 1:30 PM EDT (7/15) 12:09 AM EDT (7/15)
Length of Visible Light 15h 41m
Length of Day
14h 39m
Waxing Crescent, 45% of the Moon is Illuminated
Jul 15
Waxing Crescent
Jul 15
First Quarter
Jul 22
Full
Jul 29
Last Quarter
Aug 6
New

Hourly Weather History & Observations

Time (EDT) Temp. Heat Index Dew Point Humidity Pressure Visibility Wind Dir Wind Speed Gust Speed Precip Events Conditions
12:15 AM 72.1 °F - 69.8 °F 92% 30.28 in 10.0 mi Calm Calm - N/A   Clear
12:35 AM 72.0 °F - 69.8 °F 93% 30.29 in 10.0 mi Calm Calm - N/A   Clear
12:55 AM 71.2 °F - 69.3 °F 93% 30.29 in 10.0 mi Calm Calm - N/A   Clear
1:15 AM 71.2 °F - 69.1 °F 93% 30.29 in 10.0 mi Calm Calm - N/A   Clear
1:35 AM 75.7 °F - 67.5 °F 75% 30.29 in 10.0 mi SE 4.6 mph - N/A   Clear
1:55 AM 75.9 °F - 67.1 °F 74% 30.29 in 10.0 mi SE 4.6 mph - N/A   Clear
2:15 AM 75.4 °F - 66.9 °F 75% 30.29 in 10.0 mi SE 3.5 mph - N/A   Clear
2:35 AM 73.6 °F - 67.1 °F 80% 30.29 in 10.0 mi SSE 3.5 mph - N/A   Clear
2:55 AM 73.2 °F - 67.1 °F 81% 30.29 in 10.0 mi Calm Calm - N/A   Clear
3:15 AM 72.7 °F - 67.1 °F 83% 30.30 in 10.0 mi Calm Calm - N/A   Clear
3:35 AM 72.3 °F - 67.1 °F 84% 30.29 in 10.0 mi Calm Calm - N/A   Clear
3:55 AM 72.0 °F - 66.7 °F 84% 30.30 in 10.0 mi Calm Calm - N/A   Clear
4:15 AM 69.6 °F - 66.2 °F 89% 30.30 in 10.0 mi Calm Calm - N/A   Clear
4:35 AM 68.5 °F - 66.2 °F 92% 30.30 in 10.0 mi Calm Calm - N/A   Clear
4:55 AM 68.4 °F - 66.2 °F 93% 30.30 in 10.0 mi Calm Calm - N/A   Clear
5:15 AM 68.0 °F - 66.0 °F 93% 30.30 in 10.0 mi Calm Calm - N/A   Clear
5:35 AM 67.5 °F - 65.7 °F 94% 30.30 in 10.0 mi Calm Calm - N/A   Clear
5:55 AM 67.5 °F - 65.8 °F 95% 30.31 in 10.0 mi Calm Calm - N/A   Clear
6:15 AM 66.7 °F - 65.3 °F 95% 30.31 in 10.0 mi Calm Calm - N/A   Clear
6:35 AM 67.1 °F - 65.3 °F 94% 30.32 in 10.0 mi Calm Calm - N/A   Clear
6:55 AM 67.5 °F - 65.7 °F 94% 30.32 in 10.0 mi Calm Calm - N/A   Clear
7:15 AM 68.5 °F - 66.4 °F 93% 30.32 in 10.0 mi Calm Calm - N/A   Clear
7:35 AM 70.3 °F - 67.8 °F 92% 30.33 in 10.0 mi Calm Calm - N/A   Clear
7:55 AM 74.3 °F - 68.2 °F 81% 30.33 in 10.0 mi Calm Calm - N/A   Clear
8:15 AM 75.2 °F - 67.6 °F 77% 30.33 in 10.0 mi South 4.6 mph - N/A   Clear
8:35 AM 76.5 °F - 67.8 °F 75% 30.34 in 10.0 mi SSE 4.6 mph - N/A   Clear
8:55 AM 77.9 °F - 68.2 °F 72% 30.34 in 10.0 mi SSE 3.5 mph - N/A   Clear
9:15 AM 78.8 °F - 68.2 °F 70% 30.34 in 10.0 mi Calm Calm - N/A   Clear
9:35 AM 80.4 °F 83.4 °F 69.1 °F 68% 30.34 in 10.0 mi Calm Calm - N/A   Clear
9:55 AM 80.8 °F 83.6 °F 68.4 °F 66% 30.35 in 10.0 mi South 5.8 mph - N/A   Clear
10:15 AM 81.7 °F 84.9 °F 69.1 °F 65% 30.34 in 10.0 mi Calm Calm - N/A   Clear
10:35 AM 82.0 °F 85.1 °F 68.4 °F 63% 30.34 in 10.0 mi South 3.5 mph - N/A   Clear
10:55 AM 82.8 °F 86.0 °F 68.4 °F 62% 30.34 in 10.0 mi SW 3.5 mph - N/A   Clear
11:15 AM 83.3 °F 86.4 °F 68.2 °F 60% 30.34 in 10.0 mi Calm Calm - N/A   Clear
11:35 AM 84.0 °F 87.6 °F 68.7 °F 60% 30.34 in 10.0 mi SSW 5.8 mph - N/A   Clear
11:55 AM 83.7 °F 87.0 °F 68.5 °F 60% 30.34 in 10.0 mi Calm Calm - N/A   Clear
12:15 PM 84.6 °F 87.9 °F 68.2 °F 58% 30.34 in 10.0 mi SE 3.5 mph - N/A   Clear
12:35 PM 85.1 °F 88.2 °F 67.8 °F 56% 30.34 in 10.0 mi Calm Calm - N/A   Clear
12:55 PM 85.8 °F 89.7 °F 68.9 °F 57% 30.34 in 10.0 mi Calm Calm - N/A   Clear
1:15 PM 85.5 °F 89.4 °F 69.1 °F 58% 30.33 in 10.0 mi SW 3.5 mph - N/A   Scattered Clouds
1:35 PM 86.9 °F 90.3 °F 67.6 °F 53% 30.32 in 10.0 mi Calm Calm - N/A   Scattered Clouds
1:55 PM 87.1 °F 90.2 °F 67.5 °F 52% 30.32 in 10.0 mi Calm Calm - N/A   Clear
2:15 PM 88.0 °F 91.0 °F 67.5 °F 50% 30.31 in 10.0 mi SSW 3.5 mph - N/A   Mostly Cloudy
2:35 PM 88.0 °F 91.4 °F 68.0 °F 51% 30.31 in 10.0 mi Calm Calm - N/A   Scattered Clouds
2:55 PM 88.5 °F 92.3 °F 68.2 °F 51% 30.31 in 10.0 mi East 3.5 mph - N/A   Clear
3:15 PM 88.0 °F 90.7 °F 66.7 °F 49% 30.30 in 10.0 mi Calm Calm - N/A   Clear
3:35 PM 88.7 °F 91.9 °F 67.1 °F 49% 30.30 in 10.0 mi East 3.5 mph - N/A   Clear
3:55 PM 87.3 °F 89.5 °F 65.8 °F 49% 30.29 in 10.0 mi Calm Calm - N/A   Clear
4:15 PM 89.1 °F 92.1 °F 67.3 °F 48% 30.29 in 10.0 mi Calm Calm - N/A   Clear
4:35 PM 88.7 °F 91.9 °F 67.3 °F 49% 30.29 in 10.0 mi Calm Calm - N/A   Clear
4:55 PM 89.6 °F 92.6 °F 66.9 °F 47% 30.28 in 10.0 mi Calm Calm - N/A   Clear
5:15 PM 89.4 °F 92.3 °F 66.9 °F 47% 30.28 in 10.0 mi SE 4.6 mph - N/A   Clear
5:35 PM 89.2 °F 92.0 °F 66.6 °F 47% 30.27 in 10.0 mi South 3.5 mph - N/A   Clear
5:55 PM 88.7 °F 90.8 °F 65.7 °F 46% 30.27 in 10.0 mi Calm Calm - N/A   Clear
6:15 PM 88.7 °F 91.1 °F 66.4 °F 47% 30.27 in 10.0 mi Calm Calm - N/A   Clear
6:35 PM 88.5 °F 90.8 °F 66.2 °F 47% 30.27 in 10.0 mi East 3.5 mph - N/A   Clear
6:55 PM 87.8 °F 91.1 °F 67.6 °F 51% 30.26 in 10.0 mi ESE 3.5 mph - N/A   Clear
7:15 PM 87.1 °F 90.9 °F 68.4 °F 54% 30.26 in 10.0 mi Calm Calm - N/A   Clear
7:35 PM 86.9 °F 90.3 °F 67.8 °F 53% 30.26 in 10.0 mi Calm Calm - N/A   Clear
7:55 PM 86.0 °F 89.4 °F 68.2 °F 55% 30.26 in 10.0 mi North - - N/A   Clear
8:15 PM 82.8 °F 87.7 °F 71.8 °F 69% 30.27 in 10.0 mi Calm Calm - N/A   Clear
8:35 PM 80.1 °F 83.7 °F 71.6 °F 75% 30.27 in 10.0 mi Calm Calm - N/A   Clear
8:55 PM 79.2 °F - 72.9 °F 81% 30.27 in 10.0 mi Calm Calm - N/A   Clear
9:15 PM 77.4 °F - 72.3 °F 84% 30.27 in 10.0 mi Calm Calm - N/A   Clear
9:35 PM 76.3 °F - 71.6 °F 85% 30.29 in 1.2 mi Calm Calm - N/A   Mist
9:55 PM 75.4 °F - 71.1 °F 86% 30.29 in 2.5 mi Calm Calm - N/A   Haze
10:15 PM 75.7 °F - 71.2 °F 86% 30.29 in 10.0 mi Calm Calm - N/A   Clear
10:35 PM 74.5 °F - 70.7 °F 88% 30.29 in 10.0 mi Calm Calm - N/A   Clear
10:55 PM 73.9 °F - 70.9 °F 90% 30.29 in 10.0 mi Calm Calm - N/A   Clear
11:15 PM 73.8 °F - 71.2 °F 92% 30.30 in 10.0 mi Calm Calm - N/A   Clear
11:35 PM 73.4 °F - 70.9 °F 92% 30.30 in 7.0 mi Calm Calm - N/A   Clear
11:55 PM 72.7 °F - 70.7 °F 93% 30.30 in 7.0 mi Calm Calm - N/A   Clear